{"data":{"norad_id":58246,"intl_designator":"2023-171S","name":"STARLINK-30886","alt_names":[],"object_type":"PAYLOAD","status":"ACTIVE","operator":null,"country":"US","launch_date":"2023-11-08","launch_site_code":"AFETR","launch_vehicle":null,"mission":null,"orbit_class":"UNKNOWN","rcs_meters":null,"size_class":null,"mass_kg":null,"dimensions":null,"purposes":["comms"],"wikipedia_slug":null,"has_3d_model":false,"image_url":null,"decayed_at":null,"tle_current":{"epoch":"2026-09-20T00:07:19.381152Z","epoch_age_seconds":186409,"freshness":"STALE","line1":"1 58246U 23171S   26263.00508543  .00000181  00000+0  16115-4 0  9990","line2":"2 58246  43.0034 267.7456 0000848 293.7418  66.3345 15.27576772159452","mean_motion":15.27576772,"eccentricity":8.48e-5,"inclination_deg":43.0034,"raan_deg":267.7456,"arg_perigee_deg":293.7418,"mean_anomaly_deg":66.3345,"bstar":1.6115e-5,"rev_number":15945,"period_min":94.266947913502,"perigee_km":482.47693244934,"apogee_km":483.64059125055,"semimajor_km":6861.1957618499,"source":"CELESTRAK","updated_at":"2026-09-21T09:00:33.839201Z"}}}